Weather in Milkovo

Russia / Kamchatka Krai     54°41′43″N   158°37′12″E
temp.,
°C
wind,
m/s
gust,
m/s
humid.,
%
clouds,
%
prec.,
mm/h
press.,
hPa
HPBL,
m
28 february, sun
sun2800:00−11ne4995100 1.8 1012554
03:00−12ne4995100 0.9 1011554
06:00−13ne3895100 1.4 1010424
09:00−13ne2696100 0.7 1009429
12:00−11ne3589100 1.1 1006630
15:00−9nne1388100 0.3 1003513
18:00−9nne1294100 0.6 1000286
21:00−13s1197100 0.3 99920
1 march, mon
mon100:00−14sw2396100 0.4 99632
03:00−15s1197100 0.1 99520
06:00−14s1197100 0.6 99521
09:00−14w1296100 0.1 99625
12:00−10s2387100 0.2 996359
15:00−8sse237799 0.0 996382
18:00−7ene118799 0.0 99670
21:00−9wsw2285100 0.0 99937
2 march, tue
tue200:00−11sw3385100 0.0 100177
03:00−12sw2384100 0.0 100462
06:00−13wsw2383100 0.0 100757
09:00−14wsw3583100 0.0 1011108
12:00−9sw3574100 0.0 1014470
15:00−6wsw265984 0.0 10161603
18:00−8sw467285 0.1 1020174
21:00−15sw35790 0.0 102594
3 march, wed
wed300:00−16wsw238333 0.0 102739
03:00−17w1183100 0.0 102720
06:00−15n1185100 0.0 102421
09:00−14nne2493100 0.1 1020191
12:00−13nne4693100 0.8 1012421
15:00−12nne5893100 1.8 1002591
18:00−12nne4895100 5.6 993482
21:00−12n2696100 5.9 983309
4 march, thu
thu400:00−12wsw2296100 9.7 97496
03:00−9ssw9187375 0.8 979790
06:00−13sw5167037 0.8 9891164
09:00−13wsw717688 0.0 9941412
12:00−12w1020634 0.0 9992269
15:00−10wsw1019635 0.0 10032319
18:00−10sw5177613 0.0 10041826
21:00−10ssw5158437 0.0 1002779